Regional Weather Roundup
Issued by NWS

Home | Current Version | Previous Version | Text Only | Print | Product List | Glossary Off
Versions: 1 2 3 4 5 6 7 8 9 10 11 12 13 14 15 16 17 18 19 20 21 22 23 24 25 26 27 28 29 30 31 32 33 34 35 36 37 38 39 40 41 42 43 44 45 46 47 48 49 50

315
ASUS43 KMKX 252300
RWRWI

WISCONSIN REGIONAL WEATHER ROUNDUP
NATIONAL WEATHER SERVICE MILWAUKEE/SULLIVAN WI
600 PM CDT MON JUL 25 2016

NOTE: "FAIR" INDICATES FEW OR NO CLOUDS BELOW 12,000 FEET WITH NO
SIGNIFICANT WEATHER AND/OR OBSTRUCTIONS TO VISIBILITY.

WIZ001-002-006>008-014>016-023>028-260000-
NORTHWEST WISCONSIN

CITY           SKY/WX    TMP DP  RH WIND       PRES   REMARKS
SUPERIOR ARPT  MOSUNNY   85  62  46 W9        29.96F HX  85
ASHLAND        SUNNY     83  60  45 W8        29.98F HX  83
HAYWARD        SUNNY     83  59  44 VRB6      30.01F HX  83
SIREN          SUNNY     82  59  44 NW9       30.02S HX  82
CUMBERLAND     SUNNY     79  57  47 NW9       30.03S HX  80
RICE LAKE      SUNNY     81  61  50 W6        30.03F HX  82
CHETEK         MOSUNNY   83  62  50 NW5       30.02F HX  83
LADYSMITH      MOSUNNY   81  60  49 W8        30.04S HX  82
EAU CLAIRE     NOT AVBL
MENOMONIE      SUNNY     85  60  42 NW9       30.02S HX  85
NEW RICHMOND   SUNNY     83  58  42 NW5       30.03S HX  83
OSCEOLA        SUNNY     84  62  46 W10       30.04F HX  85
$$

WIZ003>005-009-010-017-018-260000-
NORTH CENTRAL WISCONSIN

CITY           SKY/WX    TMP DP  RH WIND       PRES   REMARKS
MANITOWISH WTR SUNNY     79  58  49 NW8G16    30.02S HX  80
ARBOR VITAE    SUNNY     80  56  44 N12       30.02S HX  80
WOODRUFF       SUNNY     80  56  44 N12       30.02S HX  80
RHINELANDER    SUNNY     81  56  42 NW10      30.02S HX  81
EAGLE RIVER    SUNNY     78  52  39 NW14      30.01S
LAND O LAKES   SUNNY     79  53  40 N10       30.02S
PHILLIPS       MOSUNNY   79  60  51 W5        30.02S HX  80
TOMAHAWK       SUNNY     79  56  45 NW9       30.03R HX  80
MEDFORD        SUNNY     79  60  52 NW8       30.03S HX  80
MERRILL        SUNNY     81  59  48 NW7       30.02S HX  81
$$

WIZ029-030-035-036-043>047-260000-
CENTRAL WISCONSIN

CITY           SKY/WX    TMP DP  RH WIND       PRES   REMARKS
WAUSAU         SUNNY     82  56  40 NW13G21   29.99F HX  82
MOSINEE        SUNNY     81  57  44 NW10G18   30.02S HX  81
MARSHFIELD     SUNNY     81  60  48 NW12      30.02S HX  82
STEVENS POINT  MOSUNNY   80  58  46 W8        30.01S HX  81
WAUPACA        MOSUNNY   85  58  40 NW5       29.99S HX  85
WAUTOMA        MOSUNNY   82  62  50 NW9       29.99F HX  83
WISC RAPIDS    MOSUNNY   83  57  41 NW9       30.02S HX  82
CAMP DOUGLAS   NOT AVBL
$$

WIZ011>013-019>022-031-037>040-048>050-260000-
NORTHEAST WISCONSIN

CITY           SKY/WX    TMP DP  RH WIND       PRES   REMARKS
ANTIGO         MOSUNNY   79  59  49 NW10      30.02S HX  80
SHAWANO        SUNNY     85  58  40 NW7       29.97S HX  84
OCONTO         SUNNY     83  61  46 W6        29.94F HX  84
STURGEON BAY   MOSUNNY   82  61  48 NW6       29.96S HX  83
GREEN BAY      MOSUNNY   83  64  52 NW9       29.96F HX  84
MANITOWOC      NOT AVBL
APPLETON       MOSUNNY   82  57  42 NW9       29.97F HX  82
CLINTONVILLE   MOSUNNY   82  54  36 NW8       29.98S HX  81
OSHKOSH        SUNNY     82  61  48 NW8       29.98S HX  83
$$

WIZ032>034-041-042-053>061-260000-
SOUTHWEST WISCONSIN

CITY           SKY/WX    TMP DP  RH WIND       PRES   REMARKS
LA CROSSE      MOSUNNY   85  63  47 NW8       30.01S HX  86
SPARTA         MOSUNNY   82  62  50 NW8       30.02S HX  83
VIROQUA        SUNNY     81  63  54 NW7       30.04F HX  82
BOSCOBEL       SUNNY     85  63  47 NW8       30.01S HX  86
PRAIRIE DU CHI MOSUNNY   82  58  45 N7        30.01S HX  82
PLATTEVILLE    MOSUNNY   81  66  60 N6        30.03S HX  83
$$

WIZ056-057-062-063-064-067-068-260000-
SOUTH CENTRAL WISCONSIN

CITY           SKY/WX    TMP DP  RH WIND       PRES   REMARKS
REEDSBURG      SUNNY     82  64  54 NW10      30.00S HX  83
BARABOO/DELLS  SUNNY     82  60  48 NW7       30.01F HX  82
LONE ROCK      NOT AVBL
MINERAL POINT  SUNNY     81  63  54 N5        30.03S HX  82
MADISON        MOSUNNY   84  63  49 NW8       29.99F HX  85
MIDDLETON      SUNNY     84  62  46 N8        30.01S HX  85
WATERTOWN      SUNNY     83  63  51 NW5       29.99F HX  84
MONROE         MOSUNNY   82  61  47 CALM      30.01S HX  83
JANESVILLE     MOSUNNY   84  59  42 NW9       29.98F HX  84
$$

WIZ051-052-058>065-066-070>072-260000-
SOUTHEAST WISCONSIN

CITY           SKY/WX    TMP DP  RH WIND       PRES   REMARKS
MILWAUKEE      PTSUNNY   80  63  55 E6        29.98S HX  81
WAUKESHA       MOSUNNY   81  61  50 NW14      30.00F HX  81
MILWAUKEE/TIMM SUNNY     84  55  37 W8        29.99S HX  83
RACINE         SUNNY     83  62  49 SE7       30.00S HX  84
BURLINGTON     MOSUNNY   84  63  49 NW6       29.99S HX  85
KENOSHA        MOSUNNY   84  65  52 SE7       29.99S HX  86
FOND DU LAC    SUNNY     84  62  47 NW8       29.98F HX  85
SHEBOYGAN      SUNNY     83  61  47 NW9       29.98S HX  83
WEST BEND      PTSUNNY   82  59  44 NW8G16    29.99S HX  82
JUNEAU         SUNNY     81  62  52 W5        30.01S HX  82
$$

LSZ147-162-260000-
LAKE SUPERIOR

STATION/POSITION TIME  TEMP    WIND        PRES    WAVE
                       AIR SEA DIR/SP/G            HT/PER
                 (UTC) (F)     (DEG/KT/KT) (MB)    (FT/S)
W MID LAKE BUOY  2150   64 60  230/  8/  8 1013.7F   2/ 4
DEVILS ISLAND    2200   73     230/ 10/ 13 1014.4S
SAXON HARBOR     2200   81      40/  3/  4 1015.2S
$$

LMZ867-665-643>646-260000-
LAKE MICHIGAN

STATION/POSITION TIME  TEMP    WIND        PRES    WAVE
                       AIR SEA DIR/SP/G            HT/PER
                 (UTC) (F)     (DEG/KT/KT) (MB)    (FT/S)
CHAMBERS ISLAND  2200   82     320/  4/  6 1013.9R
S GREEN BAY BUOY 2200   78 75  290/  8/  8   N/A
N MID LAKE BUOY  2150   73 71  240/  4/  6 1013.2R   1/ 5
NORTHPORT PIER   2200   81     310/  4/  8 1013.5S
SISTER BAY       2106   79     340/  6/  6   N/A
ALGOMA LAKESHORE 2113          320/ 13/ 16   N/A
KEWAUNEE LAKESHO 2218   83     310/  5/ 10   N/A
SHEBOYGAN LAKESH 2200   82     310/ 11/ 15 1014.7F
PORT WASHINGTON  2200   85     160/  8/ 15 1015.6
ATWATER BUOY     2200   64 56  170/  4/  6 1016.9F
MILWAUKEE LAKESH 2210   69     150/ 12/ 12   N/A
S MID LAKE BUOY  2150   76 76  180/  4/  4 1014.8F   1
KENOSHA   LAKESH 2200   77     160/  6/  8 1014.9S
$$

TC  - TEMPERATURE IN CELSIUS
VSB - VISIBILITY IN STATUTE MILES
WCI - WIND CHILL INDEX
HX  - HEAT INDEX





USA.gov is the U.S. government's official web portal to all federal, state and local government web resources and services.